Location: Kerangoff
(48.3422°N, 4.6070°W)
Time: 01:49:18
(UTC+00:00)

Daily predictions for brighter satellites

Satellite Brightness Start Highest point End
(mag) Time Altitude Azimuth Time Altitude Azimuth Time Altitude Azimuth
Cosmos 1867 3.6 00:03:46 44° SW 00:05:34 82° NW 00:11:06 10° NE
Okean 3 3.4 00:05:48 74° ESE 00:05:52 75° E 00:10:06 10° NNE
Cosmos 1766 4.3 00:02:44 10° N 00:06:25 35° ENE 00:06:41 35° E
Meteor 2-4 Rocket 4.2 00:06:46 36° SW 00:08:47 54° WNW 00:14:17 10° N
COBE Rocket 4.0 00:08:45 56° SSW 00:09:37 66° W 00:14:47 10° NNW
NOSS 2-1 (C) 4.2 00:06:25 10° NW 00:11:09 73° NE 00:14:12 31° SE
COSMOS 2487 3.5 00:11:47 10° N 00:14:48 38° NE 00:14:48 38° NE
Cosmos 2227 Rocket 4.3 00:12:19 10° N 00:16:44 23° NE 00:21:07 10° E
SAR-Lupe-2 4.1 00:13:22 10° N 00:16:40 53° NW 00:16:40 53° NW
NOSS 2-1 (D) 4.2 00:13:14 10° NW 00:18:00 80° NE 00:20:50 34° SE
Cosmos 2297 Rocket 4.0 00:14:50 10° NNW 00:19:42 28° NE 00:24:33 10° ESE
Cosmos 1703 Rocket 4.4 00:23:11 36° W 00:23:54 39° WNW 00:28:04 10° N
Meteor 1-13 Rocket 4.2 00:22:35 51° SSW 00:24:01 76° WNW 00:29:35 10° N
Cosmos 724 4.4 00:24:15 49° S 00:25:52 68° ESE 00:32:05 10° NE
Cosmos 1782 Rocket 4.2 00:21:44 10° NNW 00:25:57 42° W 00:26:08 42° W
Cosmos 1378 3.6 00:26:31 53° WNW 00:26:31 53° WNW 00:29:56 10° N
Cosmos 1934 Rocket 3.8 00:20:25 10° N 00:26:36 89° ENE 00:28:27 48° S
Cosmos 1356 Rocket 3.8 00:23:31 10° NNW 00:27:43 54° W 00:27:45 54° W
USA 81 4.4 00:23:00 10° N 00:28:13 56° E 00:29:41 42° SE
Cosmos 1821 Rocket 4.4 00:23:27 10° NNW 00:29:38 52° W 00:31:35 39° SW
Meteor 1-23 Rocket 4.3 00:28:39 50° SSE 00:30:11 72° E 00:36:00 10° NNE
Cosmos 1726 4.1 00:27:21 10° NNE 00:30:12 20° ENE 00:30:59 19° E
Okean 1-7 4.2 00:32:49 30° W 00:33:30 32° WNW 00:37:22 10° N
BREEZE-M DEB (TANK) 4.3 00:25:05 10° WNW 00:35:25 41° SW 00:35:34 41° SW
RESURS DK-1 4.0 00:32:43 10° NW 00:35:19 24° W 00:35:19 24° W
Cosmos 1400 Rocket 3.5 00:36:00 10° N 00:39:58 47° ENE 00:40:29 44° E
Cosmos 1842 4.0 00:42:19 41° E 00:42:19 41° E 00:45:57 10° NNE
Cosmos 1378 Rocket 4.3 00:43:15 39° ESE 00:43:42 40° E 00:47:46 10° NNE
Cosmos 1269 Rocket 3.9 00:39:33 10° NNW 00:44:52 83° WSW 00:46:04 55° S
Thor Agena Rocket 3.9 00:44:12 10° N 00:49:23 60° WNW 00:50:54 43° SW
Cosmos 2221 Rocket 3.5 00:49:20 68° SSW 00:49:52 82° W 00:54:28 10° N
COSMOS 2455 3.2 00:44:47 10° NNW 00:50:47 62° NE 00:55:11 19° SE
Cosmos 44 Rocket 3.6 00:46:13 10° NW 00:51:17 51° WSW 00:51:32 51° SW
ISS -2.7 00:51:32 29° NW 00:52:48 45° N 00:56:05 10° ENE
Okean 2 4.2 00:53:24 39° ESE 00:53:49 40° E 00:57:45 10° NNE
Cosmos 1727 Rocket 4.4 00:55:09 35° SSE 00:57:38 55° E 01:03:50 10° NNE
SL-24 R/B 4.1 00:59:03 57° SE 00:59:53 78° ENE 01:04:09 10° N
SeaSat 1 2.3 00:55:38 10° NNE 01:00:36 87° ESE 01:01:43 55° SSW
Cosmos 2219 4.1 00:58:40 10° NNW 01:04:10 46° NE 01:09:19 12° SE
Okean 1 Rocket 3.2 01:00:41 10° N 01:05:03 66° ENE 01:05:54 53° SE
SL-16 R/B 3.6 01:00:17 13° SE 01:05:29 42° ENE 01:11:19 10° N
Cosmos 1733 4.1 01:03:31 10° NNW 01:06:39 37° WNW 01:06:39 37° WNW
CZ-4 R/B 4.1 01:03:21 10° NNE 01:08:09 57° E 01:09:13 46° SSE
Meteor 1-22 Rocket 4.3 01:03:18 10° NNW 01:09:19 76° W 01:11:23 43° S
EO 1 Del DPAF 3.5 01:08:03 10° N 01:11:42 54° WNW 01:11:46 54° WNW
Cosmos 1674 Rocket 3.5 01:12:00 65° SSW 01:12:39 86° W 01:17:09 10° N
Cosmos 1707 3.6 01:12:57 37° ESE 01:13:20 39° E 01:16:55 10° NNE
Cosmos 2369 Rocket 4.1 01:09:54 10° W 01:14:18 23° NW 01:18:44 10° N
Meteor 2-10 3.9 01:12:51 10° NNW 01:18:15 84° W 01:19:48 47° S
ATLAS CENTAUR R/B 3.1 01:17:59 18° WNW 01:19:37 25° NW 01:22:51 10° NNE
ADEOS II 4.2 01:16:21 10° NE 01:19:46 17° E 01:23:07 10° SE
Helios 1B rocket 4.0 01:17:55 10° NE 01:21:26 26° E 01:22:33 23° ESE
USA 215 3.2 01:17:22 22° SSE 01:21:40 61° SW 01:28:09 10° WNW
CZ-2D R/B 3.1 01:21:45 10° NNE 01:26:49 39° E 01:29:09 26° SE
Cosmos 1459 Rocket 4.2 01:24:13 10° N 01:30:28 68° ENE 01:34:06 26° SSE
Lacrosse 5 1.8 01:29:52 41° WSW 01:31:43 84° NW 01:36:50 10° NE
USA 281 3.2 01:28:44 22° SSE 01:33:18 88° NE 01:39:55 10° NNW
Resurs 1-4 Rocket 2.8 01:28:42 10° NNE 01:33:45 45° E 01:36:01 29° SSE
Cosmos 1605 Rocket 4.5 01:29:31 10° NNW 01:35:27 46° W 01:37:35 34° SW
Lacrosse 4 Rocket 3.5 01:37:27 16° SE 01:38:46 18° ESE 01:41:44 10° ENE
Cosmos 1697 Rocket 3.9 01:37:11 22° SE 01:39:40 31° ESE 01:44:31 10° NE
Cosmos 1953 3.4 01:36:11 10° N 01:39:58 40° ENE 01:41:51 24° SE
CZ-3B R/B 4.2 01:12:43 10° SW 01:41:19 74° SE 01:46:52 10° ENE
Cosmos 1455 Rocket 3.6 01:38:57 10° N 01:43:12 53° ENE 01:45:16 28° SE
Cosmos 2173 Rocket 3.9 01:40:16 10° N 01:46:28 88° E 01:49:59 28° S
MOZ.5/SAFIR/RUBIN 5/SL-8 3.7 01:46:29 46° SSW 01:47:45 67° WSW 01:52:24 10° NNW
Timation 2 Rocket 3.8 01:42:42 10° NNW 01:48:43 89° ENE 01:53:37 16° SSE
Cosmos 2061 Rocket 4.4 01:42:32 10° N 01:48:49 61° ENE 01:53:55 16° SSE
USA 276 2.1 01:52:28 75° E 01:52:28 75° E 01:55:27 10° ENE
Cosmos 1980 Rocket 4.1 01:48:51 12° SE 01:52:24 21° E 01:56:32 10° NE
Helios 1A 3.6 01:53:09 36° WSW 01:53:23 37° W 01:57:15 10° NNW
TSX-5 3.5 01:57:00 10° NNW 02:00:25 86° ENE 02:02:15 30° SSE
Cosmos 2227 Rocket 2.1 01:55:48 10° NNW 02:01:29 82° WSW 02:05:43 18° SSE
Meteor 1-29 4.2 01:59:40 10° NNE 02:02:48 33° E 02:03:52 26° SE
Cosmos 1470 3.7 01:59:24 10° NNW 02:02:54 32° W 02:03:04 32° W
Cosmos 2297 Rocket 2.2 01:58:34 10° NNW 02:04:11 62° WSW 02:07:13 27° S
Cosmos 1726 3.1 02:02:07 10° NNW 02:05:24 31° W 02:05:24 31° W
Cosmos 1674 2.9 02:06:17 40° SSE 02:07:30 66° E 02:11:19 10° NNE
MINOTAUR 4 R/B 4.2 02:07:15 34° SSE 02:08:40 72° ENE 02:12:14 10° N
SL-19 R/B 4.5 02:04:32 10° NNE 02:10:08 63° ESE 02:13:14 25° S
In-Cosmos 22 4.1 02:08:31 32° SSW 02:11:16 84° WNW 02:16:47 10° N
Cosmos 2100 Rocket 4.2 02:09:10 10° NNW 02:15:18 56° W 02:18:39 27° SSW
Cosmos 2082 3.9 02:11:16 10° NNW 02:16:59 74° ENE 02:22:41 10° SE
Cosmos 1758 4.1 02:13:32 10° NNW 02:17:17 35° W 02:17:56 33° WSW
Cosmos 1802 Rocket 3.9 02:11:11 10° NNW 02:17:19 70° W 02:21:07 24° S
ARGOS Delta rocket 4.1 02:13:44 10° NNE 02:18:21 63° E 02:21:12 24° S
UNK 3.7 02:16:24 32° S 02:18:27 65° WSW 02:23:02 10° NNW
Cosmos 1975 Rocket 3.0 02:17:06 37° SSW 02:18:42 70° W 02:23:03 10° N
Cosmos 304 Rocket 4.0 02:17:54 28° S 02:20:17 62° ESE 02:25:02 10° NNE
Cosmos 1315 Rocket 3.4 02:18:52 10° NNW 02:22:37 39° W 02:23:25 35° SW
Cosmos 2123 Rocket 4.0 02:19:49 24° S 02:23:46 87° E 02:30:02 10° N
DELTA 2 DEB (DPAF) 4.5 02:21:12 13° SSE 02:25:07 67° ENE 02:29:34 10° N
Cosmos 1656 3.7 02:22:25 29° SW 02:25:17 68° WNW 02:30:50 10° NNE
Cosmos 1626 2.5 02:24:28 28° SSE 02:26:10 58° E 02:29:48 10° NNE
ISS -3.6 02:26:29 10° WNW 02:29:53 75° NNE 02:33:16 10° ESE
Cosmos 2251 Rocket 4.1 02:25:07 10° NW 02:29:56 38° WSW 02:31:59 27° SSW
IRS-1D 4.0 02:30:03 10° NNE 02:35:21 59° E 02:39:28 17° S
Cosmos 614 Rocket 4.3 02:31:12 10° NW 02:36:00 43° WSW 02:38:34 25° SSW
Cosmos 1300 3.6 02:32:33 10° N 02:36:15 46° ENE 02:39:56 10° SSE
COSMOS 2455 3.7 02:31:18 10° NW 02:36:20 28° WSW 02:38:16 24° SW
KORONAS-FOTON 4.0 02:34:54 33° SW 02:36:25 57° WNW 02:40:18 10° N
Cosmos 1140 Rocket 3.4 02:32:17 10° NNW 02:37:32 87° WSW 02:42:46 10° SSE
SeaSat 1 4.4 02:33:58 10° N 02:37:34 21° NW 02:41:10 10° W
IDEFIX/ARIANE 42P 3.6 02:36:25 10° NNE 02:41:26 43° E 02:46:25 10° S
Cosmos 1025 Rocket 3.0 02:41:18 26° SSW 02:43:39 74° W 02:48:03 10° N
Timation 1 Rocket 4.4 02:39:09 10° NW 02:44:59 56° WSW 02:50:47 10° S
Cosmos 2219 3.9 02:43:07 10° NW 02:48:11 33° WSW 02:51:10 21° SSW
SL-16 R/B 3.1 02:45:21 21° SSW 02:49:06 40° W 02:54:59 10° NNW
Cosmos 371 Rocket 4.1 02:53:02 20° WSW 02:55:58 39° WNW 03:00:35 10° N
Helios 1B rocket 3.5 02:52:59 10° N 02:56:42 33° WNW 02:58:51 20° WSW
Cosmos 2263 Rocket 3.0 02:51:27 10° NNW 02:57:02 56° ENE 03:02:35 10° SE
ADEOS II 2.1 02:54:46 10° NNE 03:00:02 75° WNW 03:04:04 17° SSW
Iridium 2 3.7 02:57:31 17° S 03:00:19 86° E 03:04:10 10° N
Meteor 1-24 Rocket 4.2 02:55:12 10° S 03:00:38 57° E 03:05:54 10° NNE
Cosmos 332 Rocket 4.2 02:57:41 21° SW 03:00:47 53° WNW 03:05:35 10° NNE
ADEOS Rocket 3.6 02:53:53 10° S 03:01:23 77° WSW 03:09:14 10° NNW
Cosmos 1190 Rocket 4.0 02:56:46 10° NNW 03:01:57 65° WSW 03:07:07 10° S
Cosmos 1908 4.3 02:58:41 10° NNW 03:02:05 29° W 03:03:38 22° SW
ARIANE 5 R/B 3.7 02:57:43 10° NNE 03:02:32 39° E 03:07:16 10° SSE
USA 215 4.5 03:04:37 17° SW 03:05:35 18° WSW 03:09:45 10° W
NPP 4.3 03:00:40 10° N 03:05:44 42° WNW 03:09:31 17° SW
CZ-2D R/B 3.1 03:01:56 10° N 03:06:48 35° WNW 03:10:28 16° WSW
Cosmos 1340 3.0 03:05:33 13° S 03:08:49 62° E 03:12:32 10° NNE
Cosmos 1544 Rocket 4.4 03:06:51 10° NNW 03:10:46 32° W 03:13:21 18° SW
APEX 4.4 03:06:39 10° NW 03:10:51 38° WSW 03:15:59 10° S
Cosmos 1420 Rocket 4.4 03:06:52 12° S 03:11:36 62° ESE 03:16:44 10° NNE
Meteor 1-28 Rocket 3.3 03:08:56 15° S 03:11:49 51° W 03:15:28 10° NNW
Resurs 1-4 Rocket 3.2 03:08:53 10° N 03:13:24 30° WNW 03:17:06 14° WSW
CZ-4B R/B 4.2 03:09:38 10° NNE 03:14:31 51° E 03:19:30 10° S
Lacrosse 5 3.3 03:10:33 10° W 03:15:14 35° NNW 03:19:56 10° NE
Cosmos 1953 4.0 03:13:15 10° NW 03:16:03 18° W 03:17:30 15° WSW
Lacrosse 4 Rocket 1.7 03:13:44 18° SW 03:17:00 64° NW 03:21:24 10° NNE
Cosmos 1606 Rocket 4.1 03:13:24 10° N 03:17:47 61° ENE 03:22:10 10° SSE
USA 281 4.5 03:15:35 15° SW 03:18:33 20° W 03:23:13 10° NW
Meteor 2-5 Rocket 3.7 03:14:07 11° SSW 03:19:34 83° W 03:25:13 10° N
Cosmos 2233 Rocket 4.2 03:14:11 10° NNW 03:20:10 51° W 03:26:03 10° SSW
Cosmos 2228 3.1 03:16:26 10° N 03:20:44 77° E 03:25:01 10° SSE
Cosmos 1697 Rocket 3.2 03:18:55 15° SW 03:23:25 49° NW 03:28:53 10° NNE
Cosmos 407 Rocket 4.3 03:19:27 10° NW 03:24:12 33° WSW 03:28:56 10° SSW
Cosmos 676 Rocket 4.0 03:20:34 10° NNW 03:25:47 66° WSW 03:31:01 10° S
USA 276 2.6 03:25:26 10° W 03:28:36 62° N 03:31:45 10° E
CBERS-1 4.2 03:25:20 10° N 03:30:23 61° WNW 03:35:14 11° SSW
Cosmos 1536 Rocket 4.2 03:28:42 14° SW 03:32:14 42° WNW 03:36:28 10° N
GP-B 3.9 03:30:40 10° NNW 03:34:42 35° W 03:38:29 11° SW
Cosmos 1980 Rocket 2.3 03:30:38 12° SW 03:35:50 70° WNW 03:41:31 10° NNE
Cosmos 1624 Rocket 4.3 03:31:26 13° SW 03:36:11 57° WNW 03:41:28 10° NNE
Cosmos 2227 4.2 03:32:02 10° NNW 03:37:45 87° WSW 03:43:22 10° SSE
Cosmos 292 Rocket 4.1 03:37:21 10° S 03:42:10 67° ESE 03:47:00 10° NNE
Cosmos 2227 Rocket 3.9 03:41:56 10° WNW 03:44:37 14° W 03:47:18 10° SW
Aureole 1 Rocket 3.7 03:42:52 10° NNW 03:46:04 47° ENE 03:49:55 10° SE
Cosmos 2285 Rocket 4.3 03:40:33 10° SW 03:46:50 59° WNW 03:53:13 10° NNE
CZ-4C R/B 4.4 03:43:34 10° SSW 03:47:20 30° W 03:51:01 10° NW
Cosmos 405 3.6 03:48:58 10° NNW 03:52:12 35° W 03:55:25 10° SSW
Cosmos 1452 Rocket 3.7 03:50:06 10° SSW 03:55:23 80° ESE 04:00:42 10° NNE
Cosmos 2278 4.0 03:52:08 10° SW 03:57:44 56° WNW 04:03:22 10° NNE
Cosmos 2056 Rocket 4.2 03:53:12 10° SW 03:57:58 38° WNW 04:02:47 10° N
IRS-1C 4.3 03:54:22 10° N 03:59:37 59° WNW 04:04:51 10° SSW
BREEZE-M DEB (TANK) 2.8 03:58:44 10° SW 04:00:43 46° SSE 04:04:46 10° ENE
Cosmos 1626 4.3 04:00:08 10° W 04:01:46 12° WNW 04:03:24 10° NW
MSX 4.0 03:57:00 10° N 04:02:41 61° WNW 04:08:22 10° SSW
Spot 4 Rocket 4.2 03:57:56 10° NNE 04:03:07 80° ESE 04:08:15 10° SSW
CZ-2D R/B 3.6 04:00:54 10° N 04:05:20 77° WNW 04:09:45 10° SSW
CZ-2C R/B 3.0 04:01:14 10° NNE 04:06:22 66° ESE 04:11:31 10° S
